Home > Weather > Chittorgarh > Past weeks

Flag for India Past Weather in Chittorgarh, Rajasthan, India — Yesterday and Last 2 Weeks

Now
88 °F

Haze.


Feels Like: 87 °F
Forecast: 85 / 106 °F
Wind: 9 mph from Northwest

Location: Jaipur / Sanganer

Current Time: May 26, 2016 at 6:14:00 AM

Latest Report: May 26, 2016 at 5:30 AM


Visibility: 2 mi

Pressure: 29.59 "Hg (27.90 "Hg at 524m altitude)

Humidity: 35%

Dew Point: 57 °F

Location of ChittorgarhLocation

Past Weather in Chittorgarh — Graph

°F

Chittorgarh Temperature Yesterday

Maximum temperature yesterday: 104 °F (at 4:30 PM)
Minimum temperature yesterday: 84 °F (at 8:30 PM)
Average temperature yesterday: 94 °F

High & Low Weather Summary for the Past Weeks

 TemperatureHumidityPressure
High115 °F (May 19, 2:30 PM)74% (May 24, 1:00 AM)29.86 "Hg (May 24, 1:00 AM)
Low77 °F (May 23, 11:00 PM)5% (May 19, 4:30 PM)29.42 "Hg (May 20, 3:30 PM)
Average97 °F28%29.60 "Hg
* Reported May 11 5:00 AM — May 26 5:00 AM, Chittorgarh, Weather by CustomWeather, © 2016

Note: Actual official high and low records may vary slightly from our data, if they occured in-between our weather recording intervals... More about our weather records

Advertising

Chittorgarh Weather History for the Previous 24 Hours

Scroll right to see more
 ConditionsComfort  
Time TempWeatherWind HumidityBarometerVisibility
5:00 AM
Thu, May 26
90 °FHaze.13 mph36%29.56 "Hg1 mi
4:30 AM90 °FHaze.14 mph36%29.56 "Hg1 mi
3:30 AM90 °FHaze.13 mph38%29.56 "Hg1 mi
3:00 AM90 °FHaze.14 mph41%29.53 "Hg1 mi
2:00 AM90 °FPassing clouds.N/A46%29.56 "Hg1 mi
1:00 AM90 °FPassing clouds.N/A43%29.56 "Hg1 mi
12:00 AM90 °FPassing clouds.10 mph46%29.56 "Hg1 mi
11:30 PM
Wed, May 25
88 °FPassing clouds.7 mph49%29.56 "Hg1 mi
11:00 PM88 °FPassing clouds.8 mph49%29.56 "Hg1 mi
10:30 PM88 °FPassing clouds.9 mph49%29.56 "Hg1 mi
10:00 PM88 °FPassing clouds.13 mph46%29.56 "Hg1 mi
9:30 PM88 °FThunderstorms. Passing clouds.10 mph40%29.56 "Hg1 mi
9:00 PM84 °FThunderstorms. Passing clouds.6 mph48%29.53 "Hg1 mi
8:30 PM84 °FPassing clouds.31 mph51%29.56 "Hg0 mi
8:00 PM100 °FThunderstorms. Passing clouds.15 mph29%29.47 "Hg1 mi
7:30 PM100 °FLow level haze.21 mph27%29.47 "Hg1 mi
7:00 PM100 °FLow level haze.17 mph29%29.47 "Hg1 mi
6:30 PM100 °FLow level haze.17 mph27%29.47 "Hg1 mi
6:00 PM100 °FLow level haze.22 mph27%29.47 "Hg1 mi
5:30 PM100 °FScattered clouds.21 mph27%29.47 "Hg1 mi
4:30 PM104 °FScattered clouds.18 mph23%29.47 "Hg1 mi
3:30 PM102 °FScattered clouds.18 mph24%29.50 "Hg1 mi
3:00 PM102 °FScattered clouds.14 mph26%29.50 "Hg2 mi
2:30 PM102 °FLow level haze.18 mph24%29.53 "Hg2 mi
1:00 PM100 °FLow level haze.17 mph25%29.56 "Hg1 mi
12:30 PM100 °FLow level haze.18 mph25%29.56 "Hg1 mi
11:30 AM97 °FLow level haze.18 mph32%29.59 "Hg1 mi
11:00 AM95 °FLow level haze.16 mph36%29.59 "Hg1 mi
10:30 AM95 °FLow level haze.16 mph34%29.62 "Hg1 mi
9:30 AM91 °FLow level haze.17 mph38%29.62 "Hg1 mi
9:00 AM91 °FLow level haze.14 mph38%29.62 "Hg1 mi
8:00 AM90 °FLow level haze.17 mph43%29.59 "Hg1 mi
7:00 AM90 °FLow level haze.18 mph43%29.59 "Hg1 mi
6:00 AM90 °FLow level haze.23 mph43%29.56 "Hg1 mi
Weather by CustomWeather, © 2016

See weather overviewHow to use our weather pages